Time,TemperatureF,DewpointF,PressureIn,WindDirection,WindDirectionDegrees,WindSpeedMPH,WindSpeedGustMPH,Humidity,HourlyPrecipIn,Conditions,Clouds,dailyrainin,SoftwareType,DateUTC
2014-01-03 00:00:00,-11.0,-15.0,30.50,NNW,331,0.0,15.0,82,0.00,,,0.00,Wunderground v.1.15,2014-01-03 06:00:00,
2014-01-03 00:05:00,-11.2,-15.2,30.49,NNW,331,1.0,15.0,82,0.00,,,0.00,Wunderground v.1.15,2014-01-03 06:05:00,
2014-01-03 00:10:00,-11.3,-15.0,30.49,NNW,331,1.0,15.0,83,0.00,,,0.00,Wunderground v.1.15,2014-01-03 06:10:00,
2014-01-03 00:15:00,-11.5,-15.2,30.49,NNW,331,1.0,15.0,83,0.00,,,0.00,Wunderground v.1.15,2014-01-03 06:15:00,
2014-01-03 00:25:00,-11.6,-15.3,30.48,NNW,331,0.0,15.0,83,0.00,,,0.00,Wunderground v.1.15,2014-01-03 06:25:00,
2014-01-03 00:30:00,-11.4,-15.1,30.48,NNW,332,0.0,15.0,83,0.00,,,0.00,Wunderground v.1.15,2014-01-03 06:30:00,
2014-01-03 00:35:00,-11.1,-14.8,30.48,NNW,331,0.0,15.0,83,0.00,,,0.00,Wunderground v.1.15,2014-01-03 06:35:00,
2014-01-03 00:40:00,-10.9,-14.4,30.48,NNW,331,0.0,15.0,84,0.00,,,0.00,Wunderground v.1.15,2014-01-03 06:40:00,
2014-01-03 00:49:00,-10.9,-14.6,30.47,NNW,331,0.0,15.0,83,0.00,,,0.00,Wunderground v.1.15,2014-01-03 06:49:00,
2014-01-03 00:55:00,-10.9,-14.6,30.46,NNW,331,0.0,15.0,83,0.00,,,0.00,Wunderground v.1.15,2014-01-03 06:55:00,
2014-01-03 01:00:00,-10.9,-14.6,30.46,NNW,331,0.0,15.0,83,0.00,,,0.00,Wunderground v.1.15,2014-01-03 07:00:00,
2014-01-03 01:05:00,-11.0,-14.7,30.46,NNW,331,0.0,15.0,83,0.00,,,0.00,Wunderground v.1.15,2014-01-03 07:05:00,
2014-01-03 01:10:00,-11.0,-14.7,30.46,NNW,331,0.0,15.0,83,0.00,,,0.00,Wunderground v.1.15,2014-01-03 07:10:00,
2014-01-03 01:15:00,-11.1,-14.8,30.46,NNW,331,1.0,15.0,83,0.00,,,0.00,Wunderground v.1.15,2014-01-03 07:15:00,
2014-01-03 01:20:00,-11.2,-14.9,30.46,NNW,331,0.0,15.0,83,0.00,,,0.00,Wunderground v.1.15,2014-01-03 07:20:00,
2014-01-03 01:30:00,-11.5,-15.2,30.46,NNW,331,0.0,15.0,83,0.00,,,0.00,Wunderground v.1.15,2014-01-03 07:30:00,
2014-01-03 01:35:00,-11.6,-15.6,30.46,NNW,331,0.0,15.0,82,0.00,,,0.00,Wunderground v.1.15,2014-01-03 07:35:00,
2014-01-03 01:40:00,-11.8,-15.8,30.47,NNW,331,0.0,15.0,82,0.00,,,0.00,Wunderground v.1.15,2014-01-03 07:40:00,
2014-01-03 01:45:00,-11.9,-15.8,30.47,NNW,331,1.0,15.0,82,0.00,,,0.00,Wunderground v.1.15,2014-01-03 07:45:00,
2014-01-03 01:50:00,-12.1,-16.0,30.47,NNW,331,1.0,1.0,82,0.00,,,0.00,Wunderground v.1.15,2014-01-03 07:50:00,
2014-01-03 02:00:00,-12.2,-15.9,30.47,NNW,331,0.0,15.0,83,0.00,,,0.00,Wunderground v.1.15,2014-01-03 08:00:00,
2014-01-03 02:05:00,-12.0,-15.7,30.47,NNW,331,0.0,15.0,83,0.00,,,0.00,Wunderground v.1.15,2014-01-03 08:05:00,
2014-01-03 02:10:00,-11.7,-15.4,30.47,NNW,331,1.0,15.0,83,0.00,,,0.00,Wunderground v.1.15,2014-01-03 08:10:00,
2014-01-03 02:15:00,-11.6,-15.3,30.46,NNW,331,1.0,15.0,83,0.00,,,0.00,Wunderground v.1.15,2014-01-03 08:15:00,
2014-01-03 02:20:00,-11.5,-15.2,30.46,NNW,331,0.0,15.0,83,0.00,,,0.00,Wunderground v.1.15,2014-01-03 08:20:00,
2014-01-03 02:25:00,-11.4,-15.1,30.46,NNW,332,0.0,15.0,83,0.00,,,0.00,Wunderground v.1.15,2014-01-03 08:25:00,
2014-01-03 02:35:00,-11.2,-14.9,30.46,NNW,331,0.0,15.0,83,0.00,,,0.00,Wunderground v.1.15,2014-01-03 08:35:00,
2014-01-03 02:40:00,-11.2,-14.9,30.46,NNW,332,0.0,15.0,83,0.00,,,0.00,Wunderground v.1.15,2014-01-03 08:40:00,
2014-01-03 02:45:00,-11.2,-14.9,30.46,NNW,332,1.0,15.0,83,0.00,,,0.00,Wunderground v.1.15,2014-01-03 08:45:00,
2014-01-03 02:50:00,-11.1,-14.8,30.47,NNW,332,2.0,2.0,83,0.00,,,0.00,Wunderground v.1.15,2014-01-03 08:50:00,
2014-01-03 02:55:00,-11.1,-14.8,30.47,NNW,331,1.0,15.0,83,0.00,,,0.00,Wunderground v.1.15,2014-01-03 08:55:00,
2014-01-03 03:00:00,-10.8,-14.5,30.47,NNW,332,0.0,0.0,83,0.00,,,0.00,Wunderground v.1.15,2014-01-03 09:00:00,
2014-01-03 03:10:00,-10.6,-14.3,30.47,NNW,332,0.0,1.0,83,0.00,,,0.00,Wunderground v.1.15,2014-01-03 09:10:00,
2014-01-03 03:15:00,-10.6,-14.3,30.46,NNW,332,0.0,1.0,83,0.00,,,0.00,Wunderground v.1.15,2014-01-03 09:15:00,
2014-01-03 03:20:00,-10.8,-14.5,30.46,NNW,331,0.0,0.0,83,0.00,,,0.00,Wunderground v.1.15,2014-01-03 09:20:00,
2014-01-03 03:25:00,-11.0,-15.0,30.46,NNW,332,0.0,0.0,82,0.00,,,0.00,Wunderground v.1.15,2014-01-03 09:25:00,
2014-01-03 03:30:00,-11.0,-14.7,30.46,NNW,332,0.0,0.0,83,0.00,,,0.00,Wunderground v.1.15,2014-01-03 09:30:00,
2014-01-03 03:40:00,-10.7,-14.4,30.45,North,350,2.0,3.0,83,0.00,,,0.00,Wunderground v.1.15,2014-01-03 09:40:00,
2014-01-03 03:45:00,-10.7,-14.4,30.44,North,6,3.0,3.0,83,0.00,,,0.00,Wunderground v.1.15,2014-01-03 09:45:00,
2014-01-03 03:50:00,-11.3,-15.3,30.45,ENE,61,3.0,4.0,82,0.00,,,0.00,Wunderground v.1.15,2014-01-03 09:50:00,
2014-01-03 03:55:00,-11.7,-15.7,30.45,East,98,3.0,4.0,82,0.00,,,0.00,Wunderground v.1.15,2014-01-03 09:55:00,
2014-01-03 04:00:00,-11.4,-15.1,30.44,SE,135,3.0,4.0,83,0.00,,,0.00,Wunderground v.1.15,2014-01-03 10:00:00,
2014-01-03 04:10:00,-11.1,-14.8,30.42,ESE,118,5.0,5.0,83,0.00,,,0.00,Wunderground v.1.15,2014-01-03 10:10:00,
2014-01-03 04:15:00,-11.3,-15.3,30.41,ESE,117,5.0,5.0,82,0.00,,,0.00,Wunderground v.1.15,2014-01-03 10:15:00,
2014-01-03 04:20:00,-11.3,-15.0,30.41,ESE,122,6.0,6.0,83,0.00,,,0.00,Wunderground v.1.15,2014-01-03 10:20:00,
2014-01-03 04:25:00,-11.2,-14.9,30.41,ESE,109,5.0,6.0,83,0.00,,,0.00,Wunderground v.1.15,2014-01-03 10:25:00,
2014-01-03 04:30:00,-10.8,-14.3,30.41,ESE,114,5.0,7.0,84,0.00,,,0.00,Wunderground v.1.15,2014-01-03 10:30:00,
2014-01-03 04:35:00,-10.4,-14.1,30.40,ESE,117,6.0,7.0,83,0.00,,,0.00,Wunderground v.1.15,2014-01-03 10:35:00,
2014-01-03 04:45:00,-9.4,-12.9,30.41,SE,134,7.0,7.0,84,0.00,,,0.00,Wunderground v.1.15,2014-01-03 10:45:00,
2014-01-03 04:50:00,-8.3,-11.6,30.40,SE,132,6.0,7.0,85,0.00,,,0.00,Wunderground v.1.15,2014-01-03 10:50:00,
2014-01-03 04:55:00,-7.3,-10.6,30.40,SE,131,7.0,8.0,85,0.00,,,0.00,Wunderground v.1.15,2014-01-03 10:55:00,
2014-01-03 05:00:00,-6.5,-9.8,30.39,SE,143,8.0,9.0,85,0.00,,,0.00,Wunderground v.1.15,2014-01-03 11:00:00,
2014-01-03 05:05:00,-6.4,-10.0,30.39,SE,140,9.0,9.0,84,0.00,,,0.00,Wunderground v.1.15,2014-01-03 11:05:00,
2014-01-03 05:15:00,-5.5,-8.8,30.39,SSE,149,6.0,9.0,85,0.00,,,0.00,Wunderground v.1.15,2014-01-03 11:15:00,
2014-01-03 05:20:00,-4.9,-8.3,30.38,SSE,150,8.0,10.0,85,0.00,,,0.00,Wunderground v.1.15,2014-01-03 11:20:00,
2014-01-03 05:25:00,-4.8,-8.4,30.37,SSE,147,9.0,11.0,84,0.00,,,0.00,Wunderground v.1.15,2014-01-03 11:25:00,
2014-01-03 05:30:00,-5.0,-8.6,30.37,SSE,147,11.0,13.0,84,0.00,,,0.00,Wunderground v.1.15,2014-01-03 11:30:00,
2014-01-03 05:35:00,-4.4,-7.8,30.36,SSE,149,12.0,14.0,85,0.00,,,0.00,Wunderground v.1.15,2014-01-03 11:35:00,
2014-01-03 05:40:00,-4.1,-7.5,30.37,SSE,154,12.0,12.0,85,0.00,,,0.00,Wunderground v.1.15,2014-01-03 11:40:00,
2014-01-03 05:50:00,-3.7,-7.1,30.36,SSE,150,10.0,10.0,85,0.00,,,0.00,Wunderground v.1.15,2014-01-03 11:50:00,
2014-01-03 05:55:00,-3.5,-6.9,30.37,South,173,9.0,12.0,85,0.00,,,0.00,Wunderground v.1.15,2014-01-03 11:55:00,
2014-01-03 06:00:00,-3.4,-7.0,30.36,SSE,161,10.0,10.0,84,0.00,,,0.00,Wunderground v.1.15,2014-01-03 12:00:00,
2014-01-03 06:05:00,-3.0,-6.4,30.37,SSE,164,9.0,10.0,85,0.00,,,0.00,Wunderground v.1.15,2014-01-03 12:05:00,
2014-01-03 06:10:00,-2.9,-6.3,30.36,SE,140,8.0,11.0,85,0.00,,,0.00,Wunderground v.1.15,2014-01-03 12:10:00,
2014-01-03 06:20:00,-2.3,-5.7,30.35,SSE,148,11.0,11.0,85,0.00,,,0.00,Wunderground v.1.15,2014-01-03 12:20:00,
2014-01-03 06:25:00,-1.9,-5.3,30.36,SSE,154,11.0,11.0,85,0.00,,,0.00,Wunderground v.1.15,2014-01-03 12:25:00,
2014-01-03 06:30:00,-1.6,-5.0,30.35,SSE,148,11.0,11.0,85,0.00,,,0.00,Wunderground v.1.15,2014-01-03 12:30:00,
2014-01-03 06:35:00,-1.4,-5.1,30.35,SSE,153,12.0,14.0,84,0.00,,,0.00,Wunderground v.1.15,2014-01-03 12:35:00,
2014-01-03 06:45:00,-1.0,-4.7,30.35,SSE,153,12.0,12.0,84,0.00,,,0.00,Wunderground v.1.15,2014-01-03 12:45:00,
2014-01-03 06:55:00,-0.7,-4.4,30.34,SSE,149,13.0,13.0,84,0.00,,,0.00,Wunderground v.1.15,2014-01-03 12:55:00,
2014-01-03 07:00:00,-0.4,-4.1,30.34,SSE,162,13.0,13.0,84,0.00,,,0.00,Wunderground v.1.15,2014-01-03 13:00:00,
2014-01-03 07:05:00,0.0,-3.7,30.34,SSE,148,12.0,13.0,84,0.00,,,0.00,Wunderground v.1.15,2014-01-03 13:05:00,
2014-01-03 07:10:00,0.4,-3.3,30.34,SSE,150,12.0,14.0,84,0.00,,,0.00,Wunderground v.1.15,2014-01-03 13:10:00,
2014-01-03 07:15:00,0.5,-3.2,30.33,SSE,154,13.0,16.0,84,0.00,,,0.00,Wunderground v.1.15,2014-01-03 13:15:00,
2014-01-03 07:25:00,0.7,-3.3,30.33,SSE,159,11.0,12.0,83,0.00,,,0.00,Wunderground v.1.15,2014-01-03 13:25:00,
2014-01-03 07:30:00,1.2,-2.5,30.33,SE,143,11.0,11.0,84,0.00,,,0.00,Wunderground v.1.15,2014-01-03 13:30:00,
2014-01-03 07:35:00,1.6,-2.4,30.33,SSE,152,11.0,11.0,83,0.00,,,0.00,Wunderground v.1.15,2014-01-03 13:35:00,
2014-01-03 07:40:00,1.8,-2.4,30.32,South,172,12.0,15.0,82,0.00,,,0.00,Wunderground v.1.15,2014-01-03 13:40:00,
2014-01-03 07:45:00,1.9,-2.6,30.32,SSE,165,13.0,16.0,81,0.00,,,0.00,Wunderground v.1.15,2014-01-03 13:45:00,
2014-01-03 07:50:00,2.0,-2.8,30.31,SSE,161,14.0,14.0,80,0.00,,,0.00,Wunderground v.1.15,2014-01-03 13:50:00,
2014-01-03 08:00:00,1.9,-2.8,30.32,SSE,154,14.0,14.0,80,0.00,,,0.00,Wunderground v.1.15,2014-01-03 14:00:00,
2014-01-03 08:05:00,1.9,-2.6,30.31,SE,144,15.0,15.0,81,0.00,,,0.00,Wunderground v.1.15,2014-01-03 14:05:00,
2014-01-03 08:10:00,2.0,-2.5,30.31,SSE,154,15.0,15.0,81,0.00,,,0.00,Wunderground v.1.15,2014-01-03 14:10:00,
2014-01-03 08:15:00,2.2,-2.3,30.31,SSE,159,15.0,15.0,81,0.00,,,0.00,Wunderground v.1.15,2014-01-03 14:15:00,
2014-01-03 08:20:00,2.4,-2.1,30.30,SSE,152,15.0,18.0,81,0.00,,,0.00,Wunderground v.1.15,2014-01-03 14:20:00,
2014-01-03 08:29:00,2.6,-1.9,30.30,SSE,151,15.0,16.0,81,0.00,,,0.00,Wunderground v.1.15,2014-01-03 14:29:00,
2014-01-03 08:34:00,2.7,-1.5,30.29,SE,141,15.0,17.0,82,0.00,,,0.00,Wunderground v.1.15,2014-01-03 14:34:00,
2014-01-03 08:39:00,2.8,-1.4,30.29,SE,145,15.0,16.0,82,0.00,,,0.00,Wunderground v.1.15,2014-01-03 14:39:00,
2014-01-03 08:45:00,3.0,-1.3,30.29,SSE,152,15.0,16.0,82,0.00,,,0.00,Wunderground v.1.15,2014-01-03 14:45:00,
2014-01-03 08:50:00,3.3,-1.0,30.28,SSE,152,16.0,16.0,82,0.00,,,0.00,Wunderground v.1.15,2014-01-03 14:50:00,
2014-01-03 08:55:00,3.8,-0.7,30.27,SSE,147,17.0,18.0,81,0.00,,,0.00,Wunderground v.1.15,2014-01-03 14:55:00,
2014-01-03 09:04:00,4.4,-0.7,30.26,SE,143,19.0,21.0,79,0.00,,,0.00,Wunderground v.1.15,2014-01-03 15:04:00,
2014-01-03 09:09:00,4.7,-0.4,30.26,SSE,152,19.0,19.0,79,0.00,,,0.00,Wunderground v.1.15,2014-01-03 15:09:00,
2014-01-03 09:14:00,5.0,-0.1,30.26,SSE,154,19.0,19.0,79,0.00,,,0.00,Wunderground v.1.15,2014-01-03 15:14:00,
2014-01-03 09:19:00,5.2,-0.2,30.26,SE,145,17.0,18.0,78,0.00,,,0.00,Wunderground v.1.15,2014-01-03 15:19:00,
2014-01-03 09:24:00,5.3,-0.1,30.25,SSE,162,17.0,18.0,78,0.00,,,0.00,Wunderground v.1.15,2014-01-03 15:24:00,
2014-01-03 09:30:00,5.6,0.2,30.26,SSE,151,16.0,16.0,78,0.00,,,0.00,Wunderground v.1.15,2014-01-03 15:30:00,
2014-01-03 09:35:00,5.8,0.4,30.26,SSE,158,14.0,16.0,78,0.00,,,0.00,Wunderground v.1.15,2014-01-03 15:35:00,
2014-01-03 09:40:00,6.1,0.7,30.26,SE,145,14.0,17.0,78,0.00,,,0.00,Wunderground v.1.15,2014-01-03 15:40:00,
2014-01-03 09:45:00,6.2,0.5,30.26,SE,137,14.0,17.0,77,0.00,,,0.00,Wunderground v.1.15,2014-01-03 15:45:00,
2014-01-03 09:50:00,6.3,0.6,30.26,SSE,163,15.0,15.0,77,0.00,,,0.00,Wunderground v.1.15,2014-01-03 15:50:00,
2014-01-03 09:55:00,6.4,0.7,30.25,SSE,148,15.0,16.0,77,0.00,,,0.00,Wunderground v.1.15,2014-01-03 15:55:00,
2014-01-03 10:05:00,6.5,0.5,30.25,SSE,153,16.0,17.0,76,0.00,,,0.00,Wunderground v.1.15,2014-01-03 16:05:00,
2014-01-03 10:10:00,6.7,1.3,30.24,SSE,148,16.0,16.0,78,0.00,,,0.00,Wunderground v.1.15,2014-01-03 16:10:00,
2014-01-03 10:15:00,6.7,1.0,30.23,SSE,152,16.0,18.0,77,0.00,,,0.00,Wunderground v.1.15,2014-01-03 16:15:00,
2014-01-03 10:20:00,6.8,1.1,30.22,SSE,157,18.0,18.0,77,0.00,,,0.00,Wunderground v.1.15,2014-01-03 16:20:00,
2014-01-03 10:25:00,7.0,1.6,30.22,SSE,160,18.0,18.0,78,0.00,,,0.00,Wunderground v.1.15,2014-01-03 16:25:00,
2014-01-03 10:30:00,7.3,1.9,30.21,SSE,153,17.0,17.0,78,0.00,,,0.00,Wunderground v.1.15,2014-01-03 16:30:00,
2014-01-03 10:40:00,7.5,2.1,30.20,SSE,148,17.0,23.0,78,0.00,,,0.00,Wunderground v.1.15,2014-01-03 16:40:00,
2014-01-03 10:45:00,7.6,1.9,30.19,SE,143,18.0,23.0,77,0.00,,,0.00,Wunderground v.1.15,2014-01-03 16:45:00,
2014-01-03 10:50:00,7.7,2.3,30.19,SSE,158,19.0,22.0,78,0.00,,,0.00,Wunderground v.1.15,2014-01-03 16:50:00,
2014-01-03 10:55:00,7.9,2.7,30.18,SSE,158,19.0,22.0,79,0.00,,,0.00,Wunderground v.1.15,2014-01-03 16:55:00,
2014-01-03 11:00:00,8.2,2.8,30.18,SSE,163,19.0,21.0,78,0.00,,,0.00,Wunderground v.1.15,2014-01-03 17:00:00,
2014-01-03 11:10:00,8.7,3.2,30.17,SSE,162,20.0,20.0,78,0.00,,,0.00,Wunderground v.1.15,2014-01-03 17:10:00,
2014-01-03 11:15:00,8.9,3.2,30.16,SSE,159,20.0,22.0,77,0.00,,,0.00,Wunderground v.1.15,2014-01-03 17:15:00,
2014-01-03 11:20:00,9.2,3.7,30.15,SSE,148,20.0,24.0,78,0.00,,,0.00,Wunderground v.1.15,2014-01-03 17:20:00,
2014-01-03 11:25:00,9.3,3.8,30.14,SSE,151,20.0,24.0,78,0.00,,,0.00,Wunderground v.1.15,2014-01-03 17:25:00,
2014-01-03 11:30:00,9.4,3.9,30.14,SSE,151,22.0,22.0,78,0.00,,,0.00,Wunderground v.1.15,2014-01-03 17:30:00,
2014-01-03 11:35:00,9.7,4.5,30.13,SSE,158,22.0,22.0,79,0.00,,,0.00,Wunderground v.1.15,2014-01-03 17:35:00,
2014-01-03 11:45:00,10.3,4.8,30.11,SSE,152,20.0,20.0,78,0.00,,,0.00,Wunderground v.1.15,2014-01-03 17:45:00,
2014-01-03 11:50:00,10.5,5.0,30.11,SSE,150,20.0,20.0,78,0.00,,,0.00,Wunderground v.1.15,2014-01-03 17:50:00,
2014-01-03 11:55:00,10.8,5.6,30.10,SSE,154,20.0,20.0,79,0.00,,,0.00,Wunderground v.1.15,2014-01-03 17:55:00,
2014-01-03 12:00:00,11.1,5.6,30.10,SSE,158,19.0,19.0,78,0.00,,,0.00,Wunderground v.1.15,2014-01-03 18:00:00,
2014-01-03 12:05:00,11.4,6.2,30.09,SSE,157,18.0,19.0,79,0.00,,,0.00,Wunderground v.1.15,2014-01-03 18:05:00,
2014-01-03 12:14:00,11.7,6.4,30.07,SSE,158,21.0,21.0,79,0.00,,,0.00,Wunderground v.1.15,2014-01-03 18:14:00,
2014-01-03 12:19:00,11.9,6.6,30.06,SSE,161,20.0,20.0,79,0.00,,,0.00,Wunderground v.1.15,2014-01-03 18:19:00,
2014-01-03 12:24:00,12.0,6.7,30.06,SSE,152,20.0,23.0,79,0.00,,,0.00,Wunderground v.1.15,2014-01-03 18:24:00,
2014-01-03 12:29:00,11.8,6.8,30.05,SSE,148,22.0,27.0,80,0.00,,,0.00,Wunderground v.1.15,2014-01-03 18:29:00,
2014-01-03 12:34:00,11.7,6.7,30.04,SSE,150,23.0,27.0,80,0.00,,,0.00,Wunderground v.1.15,2014-01-03 18:34:00,
2014-01-03 12:39:00,11.7,7.0,30.03,SSE,156,23.0,27.0,81,0.00,,,0.00,Wunderground v.1.15,2014-01-03 18:39:00,
2014-01-03 12:49:00,12.3,7.6,30.02,SSE,154,24.0,24.0,81,0.00,,,0.00,Wunderground v.1.15,2014-01-03 18:49:00,
2014-01-03 12:54:00,12.6,7.9,30.02,SSE,153,24.0,24.0,81,0.00,,,0.00,Wunderground v.1.15,2014-01-03 18:54:00,
2014-01-03 12:59:00,13.0,8.3,30.01,SSE,150,23.0,27.0,81,0.00,,,0.00,Wunderground v.1.15,2014-01-03 18:59:00,
2014-01-03 13:04:00,13.2,8.5,30.00,SSE,156,22.0,27.0,81,0.00,,,0.00,Wunderground v.1.15,2014-01-03 19:04:00,
2014-01-03 13:09:00,13.4,8.7,30.00,SSE,150,22.0,22.0,81,0.00,,,0.00,Wunderground v.1.15,2014-01-03 19:09:00,
2014-01-03 13:15:00,13.7,9.0,29.99,SSE,151,21.0,22.0,81,0.00,,,0.00,Wunderground v.1.15,2014-01-03 19:15:00,
2014-01-03 13:20:00,14.0,9.5,29.98,SSE,148,21.0,21.0,82,0.00,,,0.00,Wunderground v.1.15,2014-01-03 19:20:00,
2014-01-03 13:25:00,14.0,9.2,29.97,SSE,160,22.0,22.0,81,0.00,,,0.00,Wunderground v.1.15,2014-01-03 19:25:00,
2014-01-03 13:30:00,14.3,9.8,29.96,SSE,155,23.0,23.0,82,0.00,,,0.00,Wunderground v.1.15,2014-01-03 19:30:00,
2014-01-03 13:35:00,14.7,10.2,29.96,SSE,158,23.0,23.0,82,0.00,,,0.00,Wunderground v.1.15,2014-01-03 19:35:00,
2014-01-03 13:40:00,15.2,11.0,29.95,SE,143,23.0,27.0,83,0.00,,,0.00,Wunderground v.1.15,2014-01-03 19:40:00,
2014-01-03 13:50:00,15.6,11.4,29.94,SE,143,24.0,24.0,83,0.00,,,0.00,Wunderground v.1.15,2014-01-03 19:50:00,
2014-01-03 13:55:00,16.0,11.7,29.93,SSE,151,24.0,24.0,83,0.00,,,0.00,Wunderground v.1.15,2014-01-03 19:55:00,
2014-01-03 14:00:00,16.1,12.1,29.92,SSE,165,24.0,26.0,84,0.00,,,0.00,Wunderground v.1.15,2014-01-03 20:00:00,
2014-01-03 14:05:00,16.2,11.9,29.92,SSE,151,24.0,26.0,83,0.00,,,0.00,Wunderground v.1.15,2014-01-03 20:05:00,
2014-01-03 14:10:00,16.1,11.8,29.92,SSE,152,24.0,24.0,83,0.00,,,0.00,Wunderground v.1.15,2014-01-03 20:10:00,
2014-01-03 14:15:00,16.3,12.0,29.92,SSE,159,24.0,24.0,83,0.00,,,0.00,Wunderground v.1.15,2014-01-03 20:15:00,
2014-01-03 14:25:00,16.9,12.6,29.90,SSE,150,22.0,29.0,83,0.00,,,0.00,Wunderground v.1.15,2014-01-03 20:25:00,
2014-01-03 14:30:00,16.9,12.4,29.90,SSE,160,23.0,23.0,82,0.00,,,0.00,Wunderground v.1.15,2014-01-03 20:30:00,
2014-01-03 14:35:00,17.1,12.6,29.90,SSE,156,23.0,23.0,82,0.00,,,0.00,Wunderground v.1.15,2014-01-03 20:35:00,
2014-01-03 14:40:00,17.4,12.8,29.89,SSE,157,22.0,22.0,82,0.00,,,0.00,Wunderground v.1.15,2014-01-03 20:40:00,
2014-01-03 14:45:00,17.6,13.0,29.89,SSE,168,22.0,22.0,82,0.00,,,0.00,Wunderground v.1.15,2014-01-03 20:45:00,
2014-01-03 14:55:00,17.8,13.2,29.88,SSE,155,22.0,23.0,82,0.00,,,0.00,Wunderground v.1.15,2014-01-03 20:55:00,
2014-01-03 15:00:00,17.9,13.3,29.88,SSE,152,22.0,22.0,82,0.00,,,0.00,Wunderground v.1.15,2014-01-03 21:00:00,
2014-01-03 15:05:00,18.0,13.2,29.89,SSE,156,20.0,22.0,81,0.00,,,0.00,Wunderground v.1.15,2014-01-03 21:05:00,
2014-01-03 15:10:00,18.2,13.3,29.88,SSE,164,19.0,21.0,81,0.00,,,0.00,Wunderground v.1.15,2014-01-03 21:10:00,
2014-01-03 15:15:00,18.3,13.4,29.88,SSE,148,19.0,22.0,81,0.00,,,0.00,Wunderground v.1.15,2014-01-03 21:15:00,
2014-01-03 15:20:00,18.5,13.6,29.88,SSE,162,20.0,20.0,81,0.00,,,0.00,Wunderground v.1.15,2014-01-03 21:20:00,
2014-01-03 15:30:00,18.4,13.5,29.87,SSE,155,20.0,20.0,81,0.00,,,0.00,Wunderground v.1.15,2014-01-03 21:30:00,
2014-01-03 15:35:00,18.3,13.4,29.87,SSE,157,19.0,20.0,81,0.00,,,0.00,Wunderground v.1.15,2014-01-03 21:35:00,
2014-01-03 15:40:00,18.3,13.7,29.86,SSE,152,18.0,19.0,82,0.00,,,0.00,Wunderground v.1.15,2014-01-03 21:40:00,
2014-01-03 15:45:00,18.4,13.8,29.86,SSE,165,18.0,19.0,82,0.00,,,0.00,Wunderground v.1.15,2014-01-03 21:45:00,
2014-01-03 15:50:00,18.5,13.9,29.86,SSE,156,16.0,17.0,82,0.00,,,0.00,Wunderground v.1.15,2014-01-03 21:50:00,
2014-01-03 15:59:00,18.7,14.1,29.86,SSE,158,17.0,21.0,82,0.00,,,0.00,Wunderground v.1.15,2014-01-03 21:59:00,
2014-01-03 16:04:00,18.9,14.3,29.85,SSE,156,17.0,21.0,82,0.00,,,0.00,Wunderground v.1.15,2014-01-03 22:04:00,
2014-01-03 16:09:00,19.0,14.4,29.85,SSE,156,19.0,19.0,82,0.00,,,0.00,Wunderground v.1.15,2014-01-03 22:09:00,
2014-01-03 16:14:00,19.1,14.2,29.85,SSE,159,15.0,19.0,81,0.00,,,0.00,Wunderground v.1.15,2014-01-03 22:14:00,
2014-01-03 16:20:00,19.0,14.4,29.84,SSE,157,18.0,20.0,82,0.00,,,0.00,Wunderground v.1.15,2014-01-03 22:20:00,
2014-01-03 16:24:00,19.0,14.4,29.84,SE,146,18.0,20.0,82,0.00,,,0.00,Wunderground v.1.15,2014-01-03 22:24:00,
2014-01-03 16:34:00,19.1,14.5,29.84,SSE,153,18.0,19.0,82,0.00,,,0.00,Wunderground v.1.15,2014-01-03 22:34:00,
2014-01-03 16:39:00,19.0,14.4,29.83,SSE,150,17.0,17.0,82,0.00,,,0.00,Wunderground v.1.15,2014-01-03 22:39:00,
2014-01-03 16:44:00,19.0,14.4,29.83,SSE,162,17.0,17.0,82,0.00,,,0.00,Wunderground v.1.15,2014-01-03 22:44:00,
2014-01-03 16:49:00,18.8,14.2,29.83,SSE,156,17.0,17.0,82,0.00,,,0.00,Wunderground v.1.15,2014-01-03 22:49:00,
2014-01-03 16:54:00,18.8,14.2,29.83,SSE,158,17.0,17.0,82,0.00,,,0.00,Wunderground v.1.15,2014-01-03 22:54:00,
2014-01-03 17:00:00,18.8,14.5,29.82,SSE,162,17.0,18.0,83,0.00,,,0.00,Wunderground v.1.15,2014-01-03 23:00:00,
2014-01-03 17:05:00,18.8,14.5,29.82,SSE,158,18.0,20.0,83,0.00,,,0.00,Wunderground v.1.15,2014-01-03 23:05:00,
2014-01-03 17:10:00,19.0,14.7,29.82,SSE,161,19.0,19.0,83,0.00,,,0.00,Wunderground v.1.15,2014-01-03 23:10:00,
2014-01-03 17:15:00,18.9,14.6,29.82,SSE,158,19.0,19.0,83,0.00,,,0.00,Wunderground v.1.15,2014-01-03 23:15:00,
2014-01-03 17:20:00,19.0,14.7,29.81,SSE,154,20.0,20.0,83,0.00,,,0.00,Wunderground v.1.15,2014-01-03 23:20:00,
2014-01-03 17:25:00,19.1,14.5,29.81,South,171,20.0,21.0,82,0.00,,,0.00,Wunderground v.1.15,2014-01-03 23:25:00,
2014-01-03 17:35:00,19.2,14.6,29.81,SSE,159,18.0,19.0,82,0.00,,,0.00,Wunderground v.1.15,2014-01-03 23:35:00,
2014-01-03 17:40:00,19.2,14.9,29.80,SSE,160,19.0,23.0,83,0.00,,,0.00,Wunderground v.1.15,2014-01-03 23:40:00,
2014-01-03 17:45:00,19.3,14.7,29.80,SSE,154,20.0,23.0,82,0.00,,,0.00,Wunderground v.1.15,2014-01-03 23:45:00,
2014-01-03 17:50:00,19.5,15.2,29.79,SSE,160,21.0,23.0,83,0.00,,,0.00,Wunderground v.1.15,2014-01-03 23:50:00,
2014-01-03 17:55:00,19.5,15.2,29.80,SSE,152,20.0,23.0,83,0.00,,,0.00,Wunderground v.1.15,2014-01-03 23:55:00,
2014-01-03 18:00:00,19.7,15.4,29.80,SSE,168,19.0,20.0,83,0.00,,,0.00,Wunderground v.1.15,2014-01-04 00:00:00,
2014-01-03 18:10:00,19.9,15.3,29.79,SSE,159,21.0,23.0,82,0.00,,,0.00,Wunderground v.1.15,2014-01-04 00:10:00,
2014-01-03 18:15:00,20.0,15.4,29.80,SSE,153,20.0,23.0,82,0.00,,,0.00,Wunderground v.1.15,2014-01-04 00:15:00,
2014-01-03 18:20:00,20.0,15.4,29.79,SE,142,20.0,20.0,82,0.00,,,0.00,Wunderground v.1.15,2014-01-04 00:20:00,
2014-01-03 18:25:00,20.1,15.5,29.79,SSE,157,20.0,20.0,82,0.00,,,0.00,Wunderground v.1.15,2014-01-04 00:25:00,
2014-01-03 18:30:00,20.0,15.7,29.79,SSE,154,20.0,20.0,83,0.00,,,0.00,Wunderground v.1.15,2014-01-04 00:30:00,
2014-01-03 18:40:00,20.1,15.8,29.79,SSE,157,19.0,19.0,83,0.00,,,0.00,Wunderground v.1.15,2014-01-04 00:40:00,
2014-01-03 18:45:00,20.1,15.5,29.79,SSE,153,18.0,19.0,82,0.00,,,0.00,Wunderground v.1.15,2014-01-04 00:45:00,
2014-01-03 18:50:00,20.2,15.6,29.79,SSE,164,18.0,18.0,82,0.00,,,0.00,Wunderground v.1.15,2014-01-04 00:50:00,
2014-01-03 18:55:00,20.2,15.6,29.79,SSE,164,18.0,19.0,82,0.00,,,0.00,Wunderground v.1.15,2014-01-04 00:55:00,
2014-01-03 19:00:00,20.2,15.9,29.78,SSE,159,18.0,22.0,83,0.00,,,0.00,Wunderground v.1.15,2014-01-04 01:00:00,
2014-01-03 19:05:00,20.2,15.9,29.78,SSE,152,18.0,22.0,83,0.00,,,0.00,Wunderground v.1.15,2014-01-04 01:05:00,
2014-01-03 19:15:00,20.3,15.7,29.78,SSE,160,19.0,20.0,82,0.00,,,0.00,Wunderground v.1.15,2014-01-04 01:15:00,
2014-01-03 19:20:00,20.4,15.8,29.78,SSE,152,18.0,18.0,82,0.00,,,0.00,Wunderground v.1.15,2014-01-04 01:20:00,
2014-01-03 19:25:00,20.5,15.9,29.77,SSE,153,18.0,18.0,82,0.00,,,0.00,Wunderground v.1.15,2014-01-04 01:25:00,
2014-01-03 19:30:00,20.6,16.0,29.77,SSE,166,18.0,18.0,82,0.00,,,0.00,Wunderground v.1.15,2014-01-04 01:30:00,
2014-01-03 19:35:00,20.7,16.1,29.77,SSE,150,18.0,18.0,82,0.00,,,0.00,Wunderground v.1.15,2014-01-04 01:35:00,
2014-01-03 19:44:00,20.6,16.0,29.76,SSE,158,18.0,22.0,82,0.00,,,0.00,Wunderground v.1.15,2014-01-04 01:44:00,
2014-01-03 19:49:00,20.6,16.3,29.76,South,170,18.0,19.0,83,0.00,,,0.00,Wunderground v.1.15,2014-01-04 01:49:00,
2014-01-03 19:54:00,20.6,16.3,29.76,SSE,159,18.0,19.0,83,0.00,,,0.00,Wunderground v.1.15,2014-01-04 01:54:00,
2014-01-03 19:59:00,20.7,16.4,29.76,SSE,162,18.0,19.0,83,0.00,,,0.00,Wunderground v.1.15,2014-01-04 01:59:00,
2014-01-03 20:04:00,20.7,16.4,29.75,SSE,160,17.0,19.0,83,0.00,,,0.00,Wunderground v.1.15,2014-01-04 02:04:00,
2014-01-03 20:09:00,20.9,16.5,29.75,SSE,155,17.0,17.0,83,0.00,,,0.00,Wunderground v.1.15,2014-01-04 02:09:00,
2014-01-03 20:15:00,21.2,16.6,29.75,SSE,166,18.0,21.0,82,0.00,,,0.00,Wunderground v.1.15,2014-01-04 02:15:00,
2014-01-03 20:20:00,21.2,16.6,29.75,SSE,165,18.0,18.0,82,0.00,,,0.00,Wunderground v.1.15,2014-01-04 02:20:00,
2014-01-03 20:29:00,21.1,16.7,29.74,SSE,159,17.0,18.0,83,0.00,,,0.00,Wunderground v.1.15,2014-01-04 02:29:00,
2014-01-03 20:34:00,21.2,16.8,29.74,SSE,153,17.0,18.0,83,0.00,,,0.00,Wunderground v.1.15,2014-01-04 02:34:00,
2014-01-03 20:39:00,21.3,16.7,29.73,SSE,159,18.0,20.0,82,0.00,,,0.00,Wunderground v.1.15,2014-01-04 02:39:00,
2014-01-03 20:45:00,21.1,16.7,29.73,SSE,154,18.0,20.0,83,0.00,,,0.00,Wunderground v.1.15,2014-01-04 02:45:00,
2014-01-03 20:50:00,21.2,16.8,29.72,SSE,152,18.0,19.0,83,0.00,,,0.00,Wunderground v.1.15,2014-01-04 02:50:00,
2014-01-03 20:55:00,21.4,17.0,29.72,SSE,156,19.0,19.0,83,0.00,,,0.00,Wunderground v.1.15,2014-01-04 02:55:00,
2014-01-03 21:00:00,21.6,17.2,29.72,SSE,163,18.0,19.0,83,0.00,,,0.00,Wunderground v.1.15,2014-01-04 03:00:00,
2014-01-03 21:05:00,21.6,17.2,29.72,South,169,18.0,19.0,83,0.00,,,0.00,Wunderground v.1.15,2014-01-04 03:05:00,
2014-01-03 21:10:00,21.9,17.5,29.72,SSE,162,18.0,18.0,83,0.00,,,0.00,Wunderground v.1.15,2014-01-04 03:10:00,
2014-01-03 21:15:00,22.3,17.6,29.71,SSE,162,19.0,19.0,82,0.00,,,0.00,Wunderground v.1.15,2014-01-04 03:15:00,
2014-01-03 21:20:00,22.4,17.7,29.71,SSE,163,19.0,20.0,82,0.00,,,0.00,Wunderground v.1.15,2014-01-04 03:20:00,
2014-01-03 21:25:00,22.7,18.0,29.71,South,173,19.0,20.0,82,0.00,,,0.00,Wunderground v.1.15,2014-01-04 03:25:00,
2014-01-03 21:30:00,22.6,17.9,29.71,South,172,19.0,19.0,82,0.00,,,0.00,Wunderground v.1.15,2014-01-04 03:30:00,
2014-01-03 21:35:00,22.7,18.0,29.70,SSE,162,19.0,19.0,82,0.00,,,0.00,Wunderground v.1.15,2014-01-04 03:35:00,
2014-01-03 21:40:00,22.8,18.1,29.70,SSE,163,18.0,18.0,82,0.00,,,0.00,Wunderground v.1.15,2014-01-04 03:40:00,
2014-01-03 21:45:00,22.9,18.2,29.70,SSE,158,18.0,19.0,82,0.00,,,0.00,Wunderground v.1.15,2014-01-04 03:45:00,
2014-01-03 21:55:00,23.0,18.3,29.70,SSE,163,18.0,19.0,82,0.00,,,0.00,Wunderground v.1.15,2014-01-04 03:55:00,
2014-01-03 22:00:00,23.0,18.3,29.69,SSE,160,18.0,18.0,82,0.00,,,0.00,Wunderground v.1.15,2014-01-04 04:00:00,
2014-01-03 22:05:00,22.9,18.2,29.69,SSE,159,18.0,18.0,82,0.00,,,0.00,Wunderground v.1.15,2014-01-04 04:05:00,
2014-01-03 22:10:00,22.7,18.0,29.69,SSE,168,17.0,17.0,82,0.00,,,0.00,Wunderground v.1.15,2014-01-04 04:10:00,
2014-01-03 22:20:00,22.8,18.4,29.68,SSE,165,17.0,17.0,83,0.00,,,0.00,Wunderground v.1.15,2014-01-04 04:20:00,
2014-01-03 22:25:00,23.1,18.7,29.68,SSE,167,18.0,18.0,83,0.00,,,0.00,Wunderground v.1.15,2014-01-04 04:25:00,
2014-01-03 22:30:00,23.4,18.7,29.69,SSE,167,18.0,18.0,82,0.00,,,0.00,Wunderground v.1.15,2014-01-04 04:30:00,
2014-01-03 22:35:00,23.6,18.9,29.69,South,177,19.0,19.0,82,0.00,,,0.00,Wunderground v.1.15,2014-01-04 04:35:00,
2014-01-03 22:40:00,23.6,18.6,29.69,SSE,157,19.0,19.0,81,0.00,,,0.00,Wunderground v.1.15,2014-01-04 04:40:00,
2014-01-03 22:45:00,23.5,18.8,29.69,SSE,166,19.0,19.0,82,0.00,,,0.00,Wunderground v.1.15,2014-01-04 04:45:00,
2014-01-03 22:50:00,23.5,18.8,29.69,South,173,17.0,19.0,82,0.00,,,0.00,Wunderground v.1.15,2014-01-04 04:50:00,
2014-01-03 22:59:00,23.6,18.9,29.69,SSE,159,15.0,18.0,82,0.00,,,0.00,Wunderground v.1.15,2014-01-04 04:59:00,
2014-01-03 23:05:00,23.6,18.9,29.69,South,173,15.0,18.0,82,0.00,,,0.00,Wunderground v.1.15,2014-01-04 05:05:00,
2014-01-03 23:10:00,23.8,19.1,29.69,South,176,16.0,16.0,82,0.00,,,0.00,Wunderground v.1.15,2014-01-04 05:10:00,
2014-01-03 23:15:00,23.7,19.0,29.68,South,170,16.0,16.0,82,0.00,,,0.00,Wunderground v.1.15,2014-01-04 05:15:00,
2014-01-03 23:20:00,23.7,19.0,29.68,SSE,166,16.0,16.0,82,0.00,,,0.00,Wunderground v.1.15,2014-01-04 05:20:00,
2014-01-03 23:29:00,23.9,19.5,29.68,SSE,166,17.0,17.0,83,0.00,,,0.00,Wunderground v.1.15,2014-01-04 05:29:00,
2014-01-03 23:34:00,24.1,19.7,29.67,South,178,17.0,19.0,83,0.00,,,0.00,Wunderground v.1.15,2014-01-04 05:34:00,
2014-01-03 23:39:00,24.2,19.8,29.67,South,175,18.0,19.0,83,0.00,,,0.00,Wunderground v.1.15,2014-01-04 05:39:00,
2014-01-03 23:44:00,24.2,19.8,29.67,South,185,18.0,19.0,83,0.00,,,0.00,Wunderground v.1.15,2014-01-04 05:44:00,
2014-01-03 23:54:00,24.2,19.8,29.67,SSE,166,17.0,17.0,83,0.00,,,0.00,Wunderground v.1.15,2014-01-04 05:54:00,